Temp
72 75 81 82 82 82 82 82 82 82 82 82 82 83 83 83 83 83 83 83 83 83 83 84 83 83 83 83 84 84 83 82 82 82 83 83 82 82 82 82 81 82 82
75 77 81 82 82 82 82 82 82 82 82 82 83 83 83 83 82 82 83 83 83 83 83 84 84 84 82 82 83 83 83 83 83 84 84 84 83 83 82 82 82 83 82
75 77 80 82 82 82 82 82 82 82 82 83 83 83 83 83 82 82 83 83 82 83 84 84 84 83 84 82 82 82 82 82 83 83 82 81 82 83 82 82 82 82 82
76 76 78 81 82 82 82 82 82 83 83 83 83 83 83 83 83 83 83 83 83 83 84 84 84 84 83 83 83 83 83 82 82 81 80 82 84 83 83 82 82 82 82
74 75 77 82 82 82 82 82 83 83 83 82 83 83 83 83 83 83 83 84 84 83 82 83 84 84 84 83 83 83 82 82 81 80 79 78 79 82 83 82 82 82 82
73 75 80 82 82 82 82 83 83 83 83 83 83 83 83 84 84 84 84 84 84 84 82 83 84 83 84 83 83 83 82 81 79 78 78 80 80 83 83 83 82 82 81
73 75 78 82 83 83 83 83 83 83 83 83 83 83 84 84 84 84 84 84 84 84 84 83 83 83 84 84 83 83 82 81 77 77 78 79 80 82 82 82 82 81 81
73 75 78 82 82 82 83 83 83 83 83 83 83 83 84 84 83 84 84 84 84 84 84 84 84 84 84 84 83 82 82 81 79 77 76 78 80 81 82 81 81 81 80
75 74 75 78 81 83 83 83 83 83 83 84 83 83 83 84 84 84 84 84 84 84 84 84 84 84 83 83 83 83 81 80 76 76 78 78 80 82 82 81 80 80 80
73 74 73 75 76 76 78 83 83 83 83 83 83 84 84 84 84 84 82 84 84 84 84 84 84 83 83 84 83 82 82 79 76 77 77 79 80 81 81 81 80 80 80
73 72 72 73 74 75 76 79 82 82 83 83 82 80 77 75 77 79 83 84 84 84 84 84 84 84 82 83 84 83 80 77 77 77 77 78 80 81 81 81 80 80 80
71 71 72 72 72 74 77 74 75 75 75 73 73 73 73 74 75 79 81 83 84 83 82 82 82 82 80 79 79 82 78 77 76 76 77 78 80 81 81 81 80 80 80
70 71 71 72 73 72 73 72 71 72 71 70 71 72 72 73 74 74 74 74 75 78 75 75 76 76 78 78 78 79 78 77 76 77 77 78 80 81 82 81 81 81 81
70 71 72 72 71 72 71 71 70 71 71 69 70 71 71 71 73 73 73 73 72 73 73 74 74 76 77 78 78 78 78 77 76 76 76 79 80 81 82 82 82 82 82
69 71 71 72 71 70 70 70 69 69 69 70 71 72 72 72 72 73 72 72 72 73 73 74 75 76 77 78 78 78 78 77 77 76 76 78 80 80 82 82 83 82 82
71 71 72 72 72 71 70 70 68 68 69 70 70 71 73 72 72 73 73 73 72 73 73 74 75 76 77 77 78 78 77 77 76 76 77 77 79 80 81 82 82 82 83
72 73 72 72 73 71 70 70 69 68 70 69 70 72 73 73 73 73 72 73 74 74 75 76 77 77 78 79 77 77 77 78 78 77 77 78 79 79 81 82 82 82 82
73 72 72 79 73 71 70 70 68 69 70 70 70 72 74 75 74 74 73 73 75 75 74 76 75 75 75 75 76 77 77 78 78 78 78 78 78 80 79 79 78 80 81
73 72 72 75 72 72 71 70 70 71 71 71 71 72 75 76 76 74 73 74 75 74 73 75 75 75 75 75 78 78 77 77 78 82 79 79 79 79 79 77 79 80 81
73 73 72 72 71 71 70 70 70 71 72 72 72 74 76 75 76 73 73 74 74 75 76 75 75 74 75 75 81 80 77 78 78 78 79 81 80 81 79 77 76 76 78
73 72 71 70 70 71 70 69 69 70 71 73 73 76 75 75 75 72 71 74 73 74 75 76 75 74 74 74 76 77 76 77 78 75 76 78 81 82 81 78 76 77 77
73 71 70 70 70 71 71 71 71 71 71 74 75 75 75 76 75 72 72 72 74 73 75 76 75 74 73 72 73 72 72 76 77 77 76 79 79 78 80 81 80 79 79
72 71 70 70 71 71 72 71 71 72 71 72 72 73 75 76 77 74 71 72 73 72 74 75 76 75 73 74 72 73 69 72 72 76 76 76 75 76 77 77 80 80 81
73 73 71 71 70 72 72 71 71 71 70 70 72 73 75 77 77 76 74 73 72 72 75 75 75 74 73 73 74 73 71 72 73 73 76 75 76 77 77 77 76 81 81
75 73 72 70 70 71 71 72 71 70 71 71 72 73 73 75 75 76 75 74 72 73 75 76 75 73 72 72 72 71 71 70 70 70 71 73 73 75 75 75 76 78 78
75 74 72 71 70 71 71 71 71 71 70 70 71 71 73 73 74 75 75 74 72 73 75 76 75 74 73 73 72 72 72 72 71 70 68 69 68 72 74 74 75 76 79
MSLP
1015.58 1015.35 1015.41 1015.40 1015.31 1015.38 1015.45 1015.56 1015.66 1015.74 1015.83 1015.93 1016.15 1016.31 1016.52 1016.66 1016.66 1016.76 1016.82 1017.03 1017.05 1017.10 1017.20 1017.15 1017.35 1017.53 1017.49 1017.43 1017.36 1017.39 1017.64 1017.85 1017.99 1018.02 1018.10 1018.27 1018.21 1018.26 1018.51 1018.67 1018.82 1018.82 1018.81
1015.30 1015.48 1015.54 1015.47 1015.53 1015.68 1015.74 1015.82 1015.96 1016.12 1016.24 1016.35 1016.49 1016.67 1016.76 1016.80 1017.03 1017.02 1017.13 1017.32 1017.41 1017.44 1017.44 1017.52 1017.59 1017.78 1017.81 1017.78 1017.80 1017.80 1017.92 1018.05 1018.11 1018.29 1018.35 1018.41 1018.46 1018.62 1018.87 1018.98 1018.97 1019.04 1019.16
1015.50 1015.60 1015.63 1015.66 1015.80 1015.95 1015.99 1016.17 1016.41 1016.40 1016.57 1016.62 1016.79 1016.96 1017.03 1017.08 1017.23 1017.25 1017.41 1017.56 1017.64 1017.75 1017.70 1017.81 1018.04 1018.03 1017.95 1018.13 1018.17 1018.29 1018.32 1018.45 1018.46 1018.65 1018.80 1018.82 1018.82 1018.93 1019.05 1019.14 1019.29 1019.37 1019.43
1015.54 1015.83 1015.94 1015.99 1016.19 1016.32 1016.37 1016.41 1016.53 1016.59 1016.72 1016.96 1017.14 1017.11 1017.21 1017.24 1017.42 1017.57 1017.63 1017.68 1017.85 1017.94 1017.95 1018.09 1018.23 1018.34 1018.35 1018.46 1018.42 1018.43 1018.58 1018.77 1018.95 1019.17 1019.14 1019.04 1019.02 1019.26 1019.46 1019.52 1019.59 1019.64 1019.74
1015.82 1016.03 1016.13 1016.27 1016.35 1016.55 1016.42 1016.60 1016.70 1016.91 1017.10 1017.26 1017.30 1017.34 1017.39 1017.51 1017.70 1017.79 1017.86 1017.95 1018.02 1018.23 1018.27 1018.37 1018.44 1018.59 1018.67 1018.82 1018.77 1018.89 1019.04 1019.10 1019.32 1019.43 1019.51 1019.59 1019.60 1019.64 1019.73 1019.80 1019.85 1019.89 1019.96
1016.04 1016.13 1016.10 1016.39 1016.51 1016.61 1016.75 1016.90 1016.95 1017.13 1017.30 1017.40 1017.45 1017.50 1017.56 1017.78 1017.93 1018.03 1018.16 1018.28 1018.28 1018.51 1018.60 1018.71 1018.76 1018.84 1018.94 1019.08 1019.12 1019.21 1019.38 1019.56 1019.72 1019.87 1019.97 1019.89 1019.96 1019.91 1019.96 1020.07 1020.13 1020.19 1020.28
1016.31 1016.30 1016.37 1016.50 1016.68 1016.86 1016.96 1017.10 1017.19 1017.26 1017.49 1017.65 1017.72 1017.80 1017.85 1017.98 1018.26 1018.50 1018.66 1018.74 1018.82 1018.86 1018.92 1018.95 1019.07 1019.16 1019.12 1019.27 1019.42 1019.57 1019.73 1019.90 1020.11 1020.25 1020.24 1020.26 1020.26 1020.19 1020.27 1020.35 1020.56 1020.62 1020.71
1016.50 1016.54 1016.59 1016.68 1016.87 1017.04 1017.18 1017.35 1017.49 1017.51 1017.65 1017.83 1017.72 1017.83 1018.20 1018.31 1018.66 1018.80 1019.02 1019.05 1019.15 1019.24 1019.24 1019.25 1019.45 1019.44 1019.40 1019.58 1019.77 1019.92 1020.01 1020.15 1020.42 1020.55 1020.67 1020.69 1020.62 1020.58 1020.66 1020.86 1020.96 1020.94 1020.95
1016.72 1016.88 1016.95 1016.99 1017.09 1017.20 1017.36 1017.53 1017.70 1017.81 1017.85 1018.11 1018.24 1018.38 1018.55 1018.57 1018.79 1019.05 1019.27 1019.28 1019.38 1019.51 1019.57 1019.58 1019.66 1019.76 1019.80 1019.87 1019.99 1020.14 1020.25 1020.53 1020.82 1020.90 1020.94 1021.02 1020.88 1020.83 1020.96 1021.07 1021.08 1021.11 1021.10
1017.19 1017.17 1017.22 1017.35 1017.37 1017.59 1017.65 1017.59 1017.80 1018.06 1018.19 1018.22 1018.43 1018.59 1018.74 1018.82 1019.01 1019.29 1019.47 1019.49 1019.60 1019.70 1019.81 1019.88 1019.94 1020.00 1019.98 1020.00 1020.20 1020.36 1020.51 1020.81 1021.08 1021.17 1021.27 1021.12 1021.05 1021.14 1021.12 1021.09 1021.15 1021.20 1021.23
1017.53 1017.58 1017.61 1017.66 1017.65 1017.82 1017.79 1017.84 1018.01 1017.97 1018.31 1018.67 1018.74 1019.14 1019.32 1019.54 1019.60 1019.67 1019.65 1019.65 1019.79 1019.90 1019.92 1019.97 1020.04 1020.10 1020.22 1020.29 1020.28 1020.43 1020.72 1021.06 1021.12 1021.31 1021.36 1021.25 1021.22 1021.17 1021.15 1021.24 1021.32 1021.31 1021.38
1017.77 1017.88 1017.99 1018.02 1017.99 1018.16 1018.04 1018.19 1018.49 1018.69 1018.86 1019.16 1019.37 1019.75 1019.81 1019.88 1019.91 1019.88 1019.85 1019.83 1019.99 1020.06 1020.12 1020.15 1020.12 1020.15 1020.32 1020.44 1020.53 1020.46 1020.76 1020.97 1021.09 1021.28 1021.39 1021.33 1021.28 1021.23 1021.23 1021.32 1021.33 1021.38 1021.37
1017.87 1018.11 1018.25 1018.17 1018.31 1018.41 1018.52 1018.76 1019.26 1019.13 1019.40 1019.72 1019.78 1020.05 1020.08 1020.17 1020.18 1020.33 1020.36 1020.59 1020.52 1020.39 1020.49 1020.44 1020.41 1020.41 1020.34 1020.35 1020.45 1020.50 1020.69 1020.92 1021.11 1021.31 1021.33 1021.28 1021.30 1021.27 1021.26 1021.32 1021.29 1021.22 1021.14
1018.04 1018.27 1018.40 1018.32 1018.45 1018.67 1018.92 1019.20 1019.45 1019.53 1019.77 1020.06 1020.27 1020.32 1020.33 1020.45 1020.51 1020.49 1020.53 1020.58 1020.64 1020.68 1020.63 1020.67 1020.66 1020.52 1020.33 1020.25 1020.27 1020.35 1020.66 1020.95 1021.13 1021.18 1021.26 1021.29 1021.32 1021.33 1021.25 1021.17 1021.07 1021.01 1020.91
1018.07 1018.33 1018.42 1018.40 1018.70 1019.04 1019.35 1019.54 1019.69 1019.89 1020.01 1020.25 1020.43 1020.49 1020.61 1020.71 1020.71 1020.70 1020.82 1020.78 1020.81 1020.73 1020.71 1020.72 1020.55 1020.36 1020.26 1020.10 1020.13 1020.30 1020.65 1020.88 1021.01 1021.24 1021.40 1021.34 1021.32 1021.25 1021.15 1021.11 1020.99 1020.97 1020.96
1017.99 1018.23 1018.33 1018.57 1018.65 1018.95 1019.47 1019.78 1019.97 1020.11 1020.26 1020.47 1020.61 1020.66 1020.74 1020.93 1020.96 1020.95 1020.91 1020.91 1020.93 1020.82 1020.68 1020.58 1020.47 1020.34 1020.18 1020.16 1020.27 1020.40 1020.72 1020.99 1021.17 1021.28 1021.30 1021.31 1021.14 1021.19 1021.29 1021.27 1021.10 1021.01 1020.83
1017.63 1017.97 1018.18 1018.47 1018.70 1019.03 1019.47 1019.84 1020.03 1020.26 1020.35 1020.50 1020.54 1020.59 1020.77 1020.89 1020.89 1021.01 1021.01 1021.04 1020.86 1020.74 1020.53 1020.35 1020.21 1020.30 1020.25 1020.22 1020.47 1020.72 1020.86 1021.01 1021.09 1021.26 1021.24 1021.16 1021.11 1021.04 1021.01 1021.00 1021.04 1021.05 1020.82
1017.42 1017.79 1018.09 1018.29 1018.86 1019.12 1019.45 1019.76 1019.99 1020.14 1020.30 1020.53 1020.62 1020.65 1020.77 1020.71 1020.74 1020.83 1020.95 1020.98 1020.77 1020.69 1020.62 1020.39 1020.42 1020.56 1020.62 1020.71 1020.88 1020.85 1020.84 1021.12 1021.20 1021.11 1021.34 1021.27 1021.17 1021.10 1021.14 1021.21 1021.02 1020.91 1020.64
1017.33 1017.68 1017.99 1018.21 1018.70 1019.17 1019.41 1019.75 1020.02 1020.02 1020.27 1020.60 1020.70 1020.76 1020.71 1020.67 1020.70 1020.79 1020.97 1020.95 1020.89 1020.87 1020.85 1020.61 1020.70 1020.72 1020.97 1021.00 1020.95 1020.97 1020.97 1021.15 1021.16 1021.08 1021.23 1021.26 1021.26 1021.13 1020.97 1020.71 1020.48 1020.43 1020.23
1017.26 1017.75 1017.96 1018.15 1018.55 1019.08 1019.47 1019.81 1020.03 1020.16 1020.37 1020.63 1020.70 1020.66 1020.56 1020.67 1020.81 1020.93 1020.93 1021.10 1020.96 1020.77 1020.78 1020.79 1020.80 1020.84 1021.00 1021.16 1021.11 1021.21 1021.28 1021.14 1021.05 1021.01 1021.04 1021.04 1020.94 1020.82 1020.69 1020.40 1020.14 1020.19 1019.80
1017.21 1017.72 1018.03 1018.22 1018.60 1019.04 1019.62 1020.06 1020.28 1020.48 1020.53 1020.59 1020.51 1020.51 1020.61 1020.87 1021.10 1021.19 1021.23 1021.22 1021.29 1021.19 1021.07 1020.97 1021.05 1021.18 1021.29 1021.37 1021.29 1021.37 1021.24 1021.25 1021.36 1021.20 1021.09 1021.06 1020.77 1020.46 1020.30 1020.11 1019.85 1019.90 1019.71
1017.10 1017.64 1017.92 1018.13 1018.40 1018.72 1019.06 1019.51 1019.77 1020.02 1020.17 1020.22 1020.25 1020.43 1020.60 1020.84 1021.06 1021.18 1021.31 1021.31 1021.24 1021.40 1021.28 1021.08 1021.09 1021.53 1021.80 1021.64 1021.71 1021.91 1021.92 1021.78 1021.44 1021.30 1021.10 1021.05 1020.80 1020.91 1020.54 1020.28 1019.96 1019.75 1019.40
1016.96 1017.55 1017.94 1018.15 1018.29 1018.48 1018.95 1019.43 1019.78 1020.00 1020.36 1020.45 1020.55 1020.60 1020.48 1020.73 1020.80 1020.86 1021.17 1021.22 1021.36 1021.55 1021.40 1021.32 1021.29 1021.51 1021.80 1021.88 1021.75 1021.79 1022.44 1022.22 1022.10 1021.68 1021.46 1021.33 1021.22 1021.24 1020.97 1020.52 1020.05 1019.82 1019.48
1016.49 1017.22 1017.87 1018.13 1018.34 1018.61 1018.84 1019.21 1019.46 1019.86 1020.27 1020.45 1020.46 1020.58 1020.43 1020.49 1020.67 1020.85 1021.01 1021.21 1021.41 1021.44 1021.35 1021.28 1021.18 1021.50 1021.61 1021.94 1021.94 1021.93 1022.06 1022.17 1022.24 1022.17 1021.70 1021.45 1021.31 1021.20 1020.98 1020.60 1020.24 1020.01 1019.83
1016.19 1016.82 1017.53 1018.07 1018.45 1018.61 1018.89 1018.92 1019.33 1019.88 1019.97 1020.21 1020.47 1020.59 1020.71 1020.66 1020.71 1020.80 1021.02 1021.20 1021.37 1021.40 1021.18 1021.27 1021.29 1021.43 1021.57 1021.82 1021.96 1022.03 1022.20 1022.28 1022.34 1022.44 1022.31 1021.85 1021.47 1021.20 1020.97 1020.88 1020.48 1020.29 1020.11
1016.11 1016.68 1017.34 1017.86 1018.35 1018.48 1018.60 1018.89 1019.17 1019.60 1019.98 1020.18 1020.40 1020.51 1020.69 1020.83 1020.73 1020.66 1020.97 1021.25 1021.40 1021.41 1021.27 1021.22 1021.26 1021.41 1021.52 1021.70 1021.85 1021.91 1022.00 1022.13 1022.33 1022.35 1022.50 1022.53 1022.36 1021.57 1021.34 1021.05 1020.81 1020.51 1020.08
Wind_Speed
3 4 7 8 7 9 10 9 10 12 12 14 13 14 14 13 13 13 14 13 13 14 13 14 13 13 11 12 14 14 13 14 14 14 14 14 15 14 14 14 13 11 13
6 5 8 8 9 9 10 10 11 12 14 13 14 14 12 14 13 12 12 13 13 13 14 14 13 13 13 13 12 13 12 12 12 13 14 14 15 13 13 13 13 12 12
6 4 4 9 10 10 10 11 11 13 13 15 14 13 12 12 13 13 14 14 13 14 15 14 14 12 13 15 14 14 14 15 15 14 12 6 9 13 13 14 13 12 11
7 5 5 8 10 10 10 11 11 12 13 13 12 12 11 11 11 12 13 13 13 13 14 15 14 13 11 11 13 15 15 15 14 12 6 7 8 12 12 13 12 13 12
6 5 6 11 11 10 10 10 12 14 12 11 10 10 10 10 10 12 13 12 14 11 12 13 13 13 13 13 13 15 14 14 14 10 8 5 5 10 11 12 12 11 10
5 5 8 11 11 10 9 12 14 12 11 11 11 11 11 10 10 11 11 10 12 11 11 12 13 12 11 14 13 14 13 13 11 7 6 8 5 11 11 11 11 9 9
5 5 5 10 9 10 11 11 11 12 11 11 10 11 9 9 11 11 10 11 10 10 10 10 13 13 9 12 12 12 12 12 7 6 6 6 4 9 9 11 9 8 8
6 4 3 9 10 10 10 11 11 11 10 11 10 10 9 8 9 10 10 10 9 9 9 10 11 12 12 11 12 11 10 10 7 6 5 5 8 10 10 9 8 8 7
5 4 3 4 7 8 10 10 11 10 11 11 8 9 7 9 10 10 10 9 9 9 9 10 11 11 11 7 8 9 9 10 5 4 5 3 5 7 7 8 7 7 6
4 4 4 2 4 3 4 12 11 9 11 11 9 9 9 9 11 10 8 9 9 9 9 9 9 10 10 11 9 8 9 9 4 4 3 2 7 6 6 5 5 5 5
2 3 3 3 5 4 3 6 7 10 12 10 10 11 8 4 5 5 6 8 9 9 8 8 8 8 8 8 7 9 9 3 4 2 1 1 2 3 3 4 4 3 4
4 2 3 3 4 4 5 4 4 4 4 4 6 5 3 4 2 3 4 7 8 9 10 8 8 7 5 2 2 5 3 4 3 2 1 2 1 1 2 2 2 3 5
3 3 4 3 4 4 4 3 3 1 3 3 5 4 3 3 3 3 2 3 3 7 3 4 4 3 3 0 1 1 3 3 2 2 2 4 3 2 2 2 3 4 6
5 4 4 5 4 4 3 3 3 3 3 3 3 3 2 2 2 2 2 3 3 2 3 2 1 3 3 3 2 3 3 4 3 2 2 5 5 5 5 5 6 7 8
6 5 6 5 4 4 5 3 3 3 3 3 2 1 2 2 2 2 3 3 2 2 2 2 2 1 3 3 1 4 4 5 3 1 1 5 7 8 8 8 8 9 9
6 7 6 6 5 5 5 4 3 3 3 2 1 2 1 1 2 0 2 2 3 2 2 2 2 2 3 3 4 3 3 3 3 3 2 3 8 9 9 10 11 10 11
7 8 7 6 5 6 6 4 3 3 3 3 3 2 1 1 2 3 1 1 2 2 3 2 2 0 2 2 5 4 3 3 2 3 4 3 4 7 10 12 11 10 12
7 9 7 8 7 5 5 4 3 3 3 3 2 2 1 2 3 2 1 1 2 2 2 2 2 2 3 2 2 2 2 0 2 3 2 3 3 3 5 8 10 9 10
7 8 8 7 8 7 6 4 3 3 2 2 2 2 3 3 2 2 2 2 2 2 3 2 3 2 1 2 2 1 1 0 2 2 4 4 4 4 4 7 11 7 10
7 6 5 5 7 6 4 3 2 2 1 2 3 2 2 2 2 3 3 2 2 2 3 2 3 3 2 1 2 3 1 1 1 2 2 3 3 4 5 6 4 4 10
6 7 8 7 7 7 3 3 2 3 2 2 2 2 3 2 3 4 2 1 2 3 2 2 2 4 4 2 2 2 1 2 2 3 2 2 3 3 4 4 4 2 4
9 7 7 7 9 6 4 3 3 3 2 1 2 3 3 4 5 5 4 2 2 2 2 3 3 2 2 3 3 1 3 3 2 5 3 2 3 4 5 6 6 5 4
9 8 8 7 7 7 6 4 3 3 3 2 1 0 2 4 4 5 5 4 3 1 1 2 3 3 2 3 3 3 2 2 1 2 3 3 5 3 4 5 7 6 2
11 7 7 8 7 6 8 5 5 4 4 3 3 2 2 2 2 3 4 4 3 2 1 1 2 2 2 2 1 4 4 2 2 1 1 2 3 4 4 5 5 6 6
10 9 7 8 6 7 7 7 5 4 3 3 2 4 3 2 2 3 3 3 2 2 2 0 2 4 2 2 1 1 1 2 3 2 1 3 3 2 3 4 5 4 4
7 7 7 8 6 6 7 7 8 8 6 3 3 3 2 2 2 2 4 4 3 2 2 2 2 3 4 3 1 2 2 2 2 2 1 1 2 4 2 4 4 4 4
Wind_Direction
188 161 139 132 115 106 110 109 106 112 119 113 111 111 112 115 108 109 110 113 109 104 104 97 87 93 97 103 109 107 104 104 105 105 99 97 95 93 94 95 94 91 90
127 142 148 125 120 118 116 114 111 113 112 115 110 117 124 113 108 108 105 103 103 103 107 104 97 93 93 101 105 111 108 110 104 100 101 106 103 101 104 105 99 99 101
120 146 120 131 127 127 122 126 118 117 117 113 116 122 117 119 117 110 106 104 105 106 104 101 92 97 94 92 93 100 97 94 97 96 96 87 83 92 92 92 95 99 99
126 121 122 131 126 131 129 124 124 116 119 127 125 128 120 109 112 103 104 105 99 97 102 98 96 92 93 86 93 95 91 85 84 81 71 64 87 90 96 99 92 90 89
114 130 149 136 132 127 126 124 118 122 125 120 119 113 109 106 100 98 92 91 99 100 101 99 99 98 93 89 100 93 95 92 85 72 69 69 65 100 93 87 83 86 91
129 138 137 134 130 131 132 125 126 124 127 125 126 118 118 112 107 98 99 87 90 102 102 94 85 81 91 95 100 96 98 97 86 73 67 81 78 85 88 84 83 83 81
136 155 136 139 141 130 136 133 133 135 133 134 138 123 121 106 103 98 98 100 96 93 94 82 75 77 88 102 96 100 103 102 89 79 69 64 89 98 91 87 82 76 75
131 129 148 147 147 140 143 144 137 139 144 133 125 127 117 104 102 102 95 96 99 95 90 81 72 63 81 106 97 99 110 103 94 82 71 64 69 75 75 74 71 69 60
107 112 105 124 156 153 147 148 145 145 136 127 130 119 117 115 108 104 92 92 92 95 91 83 76 72 80 106 104 94 103 104 85 83 84 64 75 88 86 72 71 65 55
107 131 132 108 101 117 139 149 146 153 127 128 130 133 134 115 98 94 80 93 94 96 94 89 83 80 77 72 118 117 110 99 90 77 74 60 62 76 73 71 63 50 32
121 132 129 134 124 123 134 138 144 150 138 138 125 81 65 53 60 80 110 102 98 95 92 94 91 86 86 72 81 130 109 111 98 90 71 56 66 90 78 59 44 19 356
163 142 118 149 109 116 92 111 90 71 70 79 76 73 74 71 76 57 63 91 83 62 47 47 54 63 69 70 50 120 128 133 123 133 193 248 236 103 56 32 346 338 325
147 146 148 143 136 126 123 104 87 98 84 75 85 79 67 54 31 38 42 40 37 52 37 16 6 14 2 359 177 139 148 155 146 161 224 246 255 274 288 298 299 296 297
156 152 166 172 153 115 85 95 118 103 87 86 76 88 83 77 56 32 35 28 36 32 29 9 4 310 295 258 223 175 167 174 163 180 232 251 261 271 272 270 272 278 282
161 166 188 164 153 132 104 106 103 116 122 112 108 116 94 75 78 31 23 28 47 13 355 343 312 327 325 350 179 181 156 175 166 173 231 259 255 261 267 272 276 284 295
157 175 178 169 166 145 133 152 154 140 130 126 154 185 106 74 95 41 23 343 339 359 306 307 302 331 342 24 46 99 148 165 170 195 219 245 258 267 282 286 287 292 296
179 169 175 168 162 153 153 155 162 167 165 162 192 197 163 108 93 140 134 326 307 308 316 313 318 321 16 52 52 82 129 162 189 225 232 240 264 272 273 277 289 298 302
165 175 170 179 157 164 158 151 158 174 164 167 188 210 192 176 148 138 105 48 6 11 340 12 29 72 75 63 61 72 135 131 253 254 272 268 272 293 308 317 305 310 305
167 170 179 182 162 165 149 147 152 162 162 143 199 222 194 184 153 141 107 68 34 35 24 9 51 85 109 124 139 99 128 200 256 296 285 293 290 278 276 270 273 279 283
154 160 167 169 151 146 124 122 103 62 19 180 204 214 210 109 90 118 103 67 19 34 31 32 65 53 74 69 49 46 344 234 275 268 288 307 263 274 265 263 271 275 273
157 160 169 158 149 141 135 137 131 178 180 204 208 208 197 172 131 108 74 100 26 20 6 48 76 47 27 11 85 22 348 26 18 319 286 297 298 305 290 285 284 313 286
174 177 168 166 160 158 141 146 149 147 150 157 170 168 197 182 181 145 163 151 72 357 332 57 76 74 36 14 105 66 17 359 341 8 358 309 339 343 343 332 323 308 265
182 179 177 174 164 156 150 119 98 88 74 69 86 69 219 209 173 139 141 141 116 213 359 36 72 114 144 36 40 136 111 217 299 342 358 1 353 346 337 327 349 336 341
185 179 171 172 172 170 159 157 149 159 159 188 169 180 181 173 153 152 129 144 167 189 125 52 96 106 122 133 54 51 61 99 169 325 316 302 322 326 319 324 329 342 14
173 178 174 165 176 170 176 169 154 162 170 148 149 153 168 167 212 157 150 171 208 205 164 140 100 101 94 130 195 137 96 56 78 109 287 318 317 293 311 316 296 335 352
159 171 161 169 187 186 170 168 169 170 171 160 162 175 190 165 230 216 173 174 212 242 208 181 119 125 111 115 127 152 154 166 171 146 133 294 294 312 312 316 336 323 333